Theta_e
341 341 341 339 339 340 340 338 338 337 337 337 336 337 337 338 334 333 333 332 332 333 332 331 329 328 327 327 327 325 325 326 325 324 324 325 326 327 325 325 324 324
341 342 341 340 339 339 340 340 339 339 338 339 338 338 338 337 332 332 332 331 331 331 330 329 328 327 326 325 324 324 323 323 322 319 322 321 322 322 323 323 323 322
342 342 341 340 338 339 340 340 340 340 340 339 339 338 337 334 331 331 332 331 330 329 328 327 327 326 325 325 324 324 323 321 321 319 319 319 319 319 320 319 319 318
342 342 341 340 340 339 339 338 339 341 341 338 337 336 335 332 331 330 330 329 329 327 326 326 326 324 323 323 323 322 322 321 320 319 318 317 317 317 317 317 316 315
342 341 341 340 339 340 339 338 338 339 338 337 337 335 333 330 329 328 328 328 327 325 325 324 324 323 322 322 322 320 319 318 317 317 316 316 316 316 315 315 314 314
342 341 340 339 339 339 337 337 338 338 337 336 335 333 332 329 328 326 327 326 325 324 323 323 322 321 321 321 321 320 318 317 316 315 315 315 313 314 313 314 313 312
339 340 340 339 339 339 338 337 338 338 336 336 334 332 331 328 327 326 325 325 323 322 322 321 321 320 320 319 319 318 317 317 315 314 313 314 313 312 311 313 312 310
340 340 339 339 338 338 337 336 337 337 336 334 332 331 329 327 326 326 325 323 322 321 321 320 320 319 318 318 317 316 316 315 314 313 313 313 312 310 311 312 313 310
339 338 338 338 337 337 336 336 336 336 335 334 332 330 328 327 326 325 323 322 322 321 320 319 319 318 317 316 315 315 314 314 314 313 313 312 311 311 309 311 311 311
338 338 338 337 336 336 336 337 336 335 334 333 331 330 327 326 325 323 322 321 321 319 319 318 318 317 315 315 314 315 314 313 313 313 313 313 311 310 309 309 310 310
338 337 336 336 336 336 336 336 335 335 333 332 330 328 327 325 323 321 320 320 320 319 318 317 316 315 313 314 315 316 315 314 312 312 313 312 312 311 310 310 310 310
337 336 335 336 336 336 335 336 335 334 333 332 330 327 326 324 321 320 319 319 320 319 318 317 315 314 313 313 314 315 315 314 313 312 312 311 311 311 310 311 310 310
336 335 335 336 336 335 335 335 334 334 333 331 329 327 325 323 321 319 319 320 319 318 317 316 314 313 313 313 313 314 314 313 312 312 311 311 311 310 310 310 310 310
335 335 335 335 335 335 333 334 334 334 333 332 329 326 324 323 320 319 319 320 319 318 317 315 313 312 313 314 314 314 313 313 312 311 310 310 311 310 310 310 310 310
336 335 335 336 334 333 332 332 333 334 332 331 329 327 325 323 321 320 319 318 318 317 315 314 312 312 313 314 314 313 313 312 311 310 310 309 309 309 310 309 309 310
336 335 334 333 333 332 331 331 331 332 332 330 328 326 323 322 321 320 318 318 316 315 314 313 312 313 310 307 308 312 312 311 311 311 310 309 309 309 309 309 309 309
336 334 333 331 331 331 331 330 330 331 331 329 328 325 322 320 320 318 318 317 316 314 313 312 312 312 302 299 300 303 310 311 311 310 310 310 309 309 308 309 309 308
334 333 331 331 331 330 330 329 329 329 329 328 326 324 321 320 319 317 317 317 316 314 313 312 312 306 297 297 298 299 304 310 311 310 310 310 309 309 309 309 308 308
333 332 331 330 330 330 330 328 327 326 327 326 325 325 321 318 318 317 317 317 316 314 313 312 313 300 296 296 297 297 299 306 310 311 310 310 310 309 308 308 308 307
333 331 330 330 329 329 328 327 326 325 326 326 325 324 319 318 318 318 318 316 315 314 313 313 313 300 296 296 296 296 296 301 310 310 310 310 309 309 309 309 308 307
332 331 330 329 329 329 328 326 326 326 327 326 324 322 319 317 317 318 318 316 315 314 314 312 312 297 295 295 295 295 295 300 311 310 310 310 310 310 310 309 309 308
332 331 329 329 328 328 327 326 326 327 326 325 323 320 320 319 319 319 317 316 316 315 314 312 310 295 295 295 295 295 295 307 310 309 309 309 310 310 309 309 309 309
332 330 329 328 328 327 327 326 326 326 326 324 321 319 318 317 317 318 319 316 314 313 313 312 306 296 294 294 294 294 298 308 308 307 308 308 309 309 308 308 308 308
332 330 329 328 328 327 326 325 326 326 325 322 321 319 317 318 318 318 319 317 314 313 311 308 305 298 294 294 294 294 301 307 307 307 307 307 308 308 308 307 307 307
331 330 329 328 328 327 327 325 325 324 325 324 323 320 318 319 318 318 318 317 315 311 308 309 307 300 294 294 294 294 301 308 306 306 306 307 307 306 307 306 306 306
331 329 329 328 328 327 327 326 325 325 323 322 323 322 319 319 319 317 313 313 312 311 310 311 307 302 298 294 294 294 298 307 307 306 305 306 306 306 305 306 305 306
Wind_Speed
18 17 14 15 16 14 13 15 13 13 13 12 11 12 12 9 9 9 8 8 8 8 7 7 6 6 5 5 5 4 4 4 3 3 3 4 4 5 5 6 5 5
18 14 11 14 15 14 12 14 14 14 13 12 12 11 8 8 9 9 10 10 9 8 7 7 7 7 7 6 6 5 4 4 4 2 3 4 4 4 5 5 5 4
16 15 14 15 17 17 14 14 14 13 10 12 11 9 7 8 10 9 9 9 9 8 7 7 7 7 7 6 6 5 5 5 4 4 3 4 3 4 4 4 3 5
18 16 15 15 17 16 16 15 13 9 8 8 10 9 8 7 9 10 8 9 8 8 7 7 7 7 7 7 6 5 5 4 4 4 4 3 3 3 4 4 4 4
18 17 15 17 18 16 16 15 14 11 10 10 9 9 8 8 9 9 8 8 8 8 7 8 7 7 7 6 7 5 5 4 4 5 4 4 3 4 4 5 6 6
16 16 16 18 18 17 16 17 15 13 11 11 11 10 9 10 10 10 10 10 8 8 8 8 8 7 7 7 6 6 6 5 5 6 6 5 5 4 4 5 7 7
22 17 19 20 19 18 18 17 14 12 12 11 10 10 10 11 11 11 11 10 10 10 10 9 9 8 7 7 7 7 5 6 6 7 7 5 6 6 5 6 6 7
19 17 19 19 19 18 19 17 15 11 11 11 12 11 12 12 12 10 10 11 10 10 10 10 10 9 8 7 7 7 6 4 6 7 7 7 6 7 7 5 6 7
20 19 20 20 20 18 19 18 15 12 12 12 11 10 11 11 12 11 12 11 10 10 10 10 10 9 8 8 7 8 8 6 6 7 7 7 7 7 8 6 7 7
21 20 21 20 20 18 20 18 16 12 12 12 12 10 11 10 10 12 11 12 11 11 11 10 10 8 8 8 9 9 8 8 8 7 7 7 8 8 8 8 8 7
21 20 20 21 21 18 20 19 16 13 12 13 12 11 12 11 10 10 11 12 11 12 12 11 10 10 9 9 8 8 9 8 8 8 7 8 7 8 8 8 8 8
21 20 22 23 22 19 19 18 17 14 13 11 12 13 11 11 12 11 11 12 12 12 12 11 10 10 10 10 10 9 8 7 7 8 8 8 7 8 8 8 8 8
22 22 21 20 19 19 17 17 17 15 14 13 12 13 12 12 12 12 11 12 12 11 11 11 11 10 9 9 9 9 9 8 7 8 8 7 7 8 8 8 8 8
21 21 20 19 18 15 17 17 16 17 15 13 13 13 13 13 13 13 11 11 11 11 10 10 9 9 9 9 9 9 8 8 8 8 8 7 7 7 7 7 8 7
17 16 18 15 17 17 12 16 16 16 14 13 12 12 11 13 13 13 12 12 11 10 11 9 9 9 8 9 9 10 9 9 9 9 9 8 8 7 7 7 7 7
16 15 17 17 13 17 15 13 12 14 14 13 13 13 11 11 12 12 13 13 13 11 10 8 7 6 10 15 13 10 10 8 8 9 10 9 9 8 7 8 8 6
14 17 13 12 14 19 13 13 14 12 13 13 13 12 12 11 11 13 12 11 13 13 12 9 8 8 16 16 15 14 11 10 10 9 10 9 9 9 9 8 6 6
17 17 18 14 16 19 16 12 11 12 13 12 12 12 10 11 12 13 12 12 11 12 11 10 9 13 18 17 16 16 12 10 9 9 9 9 9 10 8 8 8 7
16 17 18 16 19 18 13 11 11 12 12 13 13 11 10 12 14 13 12 12 12 13 12 10 9 16 18 18 17 17 15 12 9 9 10 9 9 10 10 9 8 8
13 16 17 16 16 14 11 12 12 13 12 11 11 10 10 11 12 14 13 13 13 12 11 10 10 17 19 19 17 17 16 12 9 10 9 10 10 10 9 10 10 9
11 15 15 12 13 13 14 12 15 17 17 12 11 12 13 13 13 13 12 13 13 12 11 10 9 19 19 19 18 18 17 11 8 8 8 9 9 9 9 10 10 9
14 16 15 15 16 16 16 16 15 19 19 12 11 8 9 8 10 12 13 13 13 13 11 11 9 21 20 20 19 18 18 9 8 9 9 9 9 9 9 9 10 9
15 15 15 15 16 16 15 11 12 14 17 12 11 12 12 9 11 12 11 12 12 10 10 9 9 17 20 20 19 19 15 9 9 8 8 9 9 9 9 8 8 10
14 15 15 15 15 16 16 15 12 14 12 11 13 12 12 10 11 11 11 11 13 13 13 14 10 15 22 21 21 21 16 11 10 9 9 9 8 8 7 7 8 11
13 14 15 15 15 15 14 14 14 14 12 12 10 11 13 12 10 11 9 9 9 12 18 14 8 12 18 20 22 22 16 9 10 9 9 9 9 8 7 7 7 9
13 14 15 15 16 14 13 15 13 10 9 12 13 12 10 9 8 8 11 11 11 13 11 11 11 11 16 21 21 21 18 10 9 9 10 10 9 9 8 7 7 8
Wind_Direction
202 203 199 200 206 205 188 194 191 191 192 195 194 199 202 185 167 173 165 165 170 167 162 158 158 159 160 159 163 165 166 167 165 164 180 194 206 201 206 209 211 219
196 190 190 201 207 203 192 194 192 195 193 190 199 196 193 166 171 172 171 170 169 168 158 159 162 162 162 162 160 160 152 160 162 149 172 190 198 198 210 199 202 198
188 189 189 193 204 202 190 193 196 194 178 181 177 177 174 168 168 175 170 167 165 158 159 158 158 161 162 157 156 159 160 161 163 160 176 186 181 197 181 177 183 183
191 189 191 195 203 200 192 196 194 183 174 167 175 175 173 166 168 169 168 163 158 156 157 159 160 160 161 155 155 153 155 162 152 155 166 161 174 179 162 167 161 166
188 189 190 199 203 198 193 196 188 186 180 176 165 168 168 166 168 168 165 167 160 156 157 160 159 157 155 156 159 150 155 154 153 166 170 168 159 162 157 165 161 156
190 189 188 198 202 198 194 198 193 181 173 170 171 167 174 169 171 170 171 167 166 158 157 159 161 158 161 156 158 158 158 163 162 170 173 167 159 162 159 170 159 156
197 188 190 198 198 196 196 198 192 176 177 174 162 172 167 171 174 174 174 169 165 162 163 163 163 160 161 158 160 156 159 159 159 173 174 163 159 158 165 167 164 155
193 192 194 194 196 195 197 197 191 172 170 166 171 172 173 174 175 171 171 169 164 163 162 165 166 162 159 161 158 154 155 155 166 173 175 165 164 164 164 165 159 153
194 193 194 194 193 193 196 197 190 169 170 170 172 170 174 175 174 171 171 169 165 162 163 165 166 160 160 160 157 161 163 167 171 175 175 170 172 167 166 161 161 155
193 195 194 193 193 195 196 195 185 168 171 175 175 168 173 175 170 170 167 168 166 165 165 164 162 159 160 165 165 167 168 171 173 177 178 176 174 168 164 169 168 159
192 192 193 194 194 194 195 191 184 165 173 174 171 173 175 168 168 169 169 171 168 170 168 166 165 161 161 164 165 170 171 168 173 176 177 178 173 170 168 174 171 168
192 193 195 196 194 194 192 188 184 172 171 171 173 174 169 171 170 173 175 177 175 172 168 165 162 164 165 165 167 168 170 167 169 171 174 175 173 173 175 175 174 168
194 196 196 195 193 191 187 186 182 176 175 174 175 174 170 171 177 176 177 177 174 168 167 162 160 160 161 161 165 168 170 167 164 167 169 169 176 176 175 175 174 167
197 196 195 194 192 178 183 186 183 184 179 172 170 173 176 176 176 177 174 176 171 170 165 157 152 156 158 162 164 165 166 166 165 167 171 170 172 176 173 176 174 168
193 192 193 188 181 182 172 180 180 181 172 171 169 172 174 178 176 175 171 174 168 166 162 157 156 160 160 162 163 166 166 166 169 172 170 171 173 173 174 174 173 168
188 184 183 181 167 181 177 169 164 173 176 171 172 174 170 171 172 173 173 172 167 167 163 160 160 161 167 166 164 163 166 165 167 172 173 171 171 169 172 176 173 168
185 187 173 166 173 185 173 164 167 169 175 175 175 173 170 165 167 171 176 173 168 166 168 169 167 169 163 165 166 161 161 165 168 171 174 172 172 172 173 171 165 165
187 181 179 176 175 182 175 159 156 163 175 174 174 172 167 165 170 175 175 171 168 168 167 170 172 162 163 166 167 166 165 162 166 168 172 175 178 176 170 165 168 167
181 181 180 176 182 182 168 149 157 165 173 177 181 176 157 170 177 172 176 174 170 170 171 171 168 159 165 167 169 170 168 162 170 170 172 177 176 177 173 171 169 168
173 181 179 174 174 169 152 160 162 171 173 175 172 168 165 174 180 178 175 174 173 171 170 173 167 163 167 168 169 169 168 169 168 168 173 175 176 176 173 173 172 172
170 175 173 164 163 169 172 167 173 180 185 182 176 176 173 177 179 181 178 176 175 173 171 171 169 162 166 168 168 167 168 172 164 164 170 173 177 176 174 175 175 175
177 177 174 170 172 174 176 175 173 182 186 179 175 172 177 168 179 185 177 176 172 171 172 173 160 166 167 168 166 166 164 171 164 168 172 175 176 175 175 179 176 173
176 172 171 172 173 175 175 165 168 175 184 174 176 181 179 176 182 186 182 173 164 166 167 157 153 174 167 166 164 163 165 171 164 169 174 177 178 173 176 174 172 175
173 171 171 173 174 178 178 175 166 176 175 177 182 177 184 183 179 181 183 177 171 168 160 174 183 174 168 166 164 168 173 169 167 171 172 174 170 172 176 177 176 173
169 171 171 172 177 179 174 173 179 179 169 167 182 184 186 181 171 179 171 161 163 170 176 173 143 171 174 167 168 173 176 161 166 168 168 171 171 172 175 179 177 181
166 169 172 175 179 177 176 176 171 171 177 176 176 181 185 186 182 166 160 169 170 180 179 164 154 161 177 174 172 174 178 165 166 168 175 173 175 173 174 182 178 181